Location: Newark
(34.5992°S, 58.3747°W)
Time: 12:43:50
(UTC+00:00)

STARLINK 1051 - Pass Details

Date: 09 December 2019
Orbit: 348 x 351 km, 53.0° (Epoch: 26 January)

Event Time Altitude Azimuth Distance (km) Brightness Sun altitude
Rises 23:26:45 0° 245° (WSW) 2,202 9.1 -5.9°
Reaches altitude 10° 23:29:23 10° 270° (W) 1,353 6.6 -6.3°
Maximum altitude 23:31:11 15° 306° (NW) 1,108 5.5 -6.6°
Drops below altitude 10° 23:32:59 10° 343° (NNW) 1,350 5.5 -6.9°
Enters shadow 23:35:20 - 7° (N) 2,097 6.2 -7.3°
